Tracking 19407 objects as of 14-Dec-2018
HD Live streaming from Space Station
objects crossing your sky now

RSP-00

Track RSP-00 now!
10-day predictions
RSP-00 is classified as:


NORAD ID: 43639
Int'l Code: 1998-067PP
Perigee: 403.0 km
Apogee: 411.8 km
Inclination: 51.6 °
Period: 92.6 minutes
Semi major axis: 6778 km
RCS: Unknown
Launch date: November 20, 1998
Source: (TBD)
Launch site: TYURATAM MISSILE AND SPACE COMPLEX (TTMTR)

Uplink (MHz):
Downlink (MHz): 145.890/436.930
Beacon (MHz): 145.890
Mode: 1k2AFSK 38k4 pi/4QPSK CW
Call sign: 8J1RSP
Status: Inactive

aabbcc
Your satellite tracking list
Your tracking list is empty




NASA's NSSDC Master Catalog

Two Line Element Set (TLE):
1 43639U 98067PP  18347.83556297 +.00005921 +00000-0 +91482-4 0  9998
2 43639 051.6377 202.8725 0006538 120.2859 239.8780 15.55651612010613
Source of the keplerian elements: AFSPC